[[{"header":{"parameterUnit":"m.s-1","parameterCategory":1,"la1":30.2991,"la2":30.254,"lo1":-89.0895,"lo2":-89.0444,"dy":0.0017,"dx":0.0017,"nx":28,"ny":28,"refTime":"2024-08-13T21:00:00:Z","depth":0,"parameterNumber":2,"parameterNumberName":"U-component_of_WINDS"},"data":[0,0,0,0,0,0,0,0,0,0,0,0,0,0,0,0,0,0,0,0,0,0,0,0,0,0,0,0,0,0,0,0,0,0,0,0,0,0,0,0,0,0,0,0,0,0,0,0,0,0,0,0,0,0,0,0,0,0,1.3395,1.3397,0,1.3528,1.3529,1.3531,1.3539,1.3537,1.3536,1.3534,1.3679,1.3684,1.3689,0,0,0,0,0,0,0,0,0,0,0,0,0,1.3157,1.3162,1.3395,1.3397,1.3398,1.3527,1.3529,1.3531,1.3539,1.3537,1.3535,1.3534,1.3677,1.3683,1.3689,0,0,0,0,0,0,0,0,0,0,0,0,0,1.3272,1.3163,1.3395,1.3418,1.3421,1.3527,1.3529,1.3532,1.354,1.3537,1.3535,1.3533,1.3675,1.3682,1.369,1.3785,0,0,1.3714,1.3718,0,0,0,0,0,0,0,0,1.3266,1.3281,1.3413,1.3416,1.342,1.3514,1.3498,1.3617,1.354,1.3495,1.3534,1.3532,1.3626,1.3638,1.3668,1.3791,1.3798,1.3715,1.372,1.3723,1.3725,0,0,0,0,0,0,0,1.3258,1.3276,1.3448,1.3415,1.3419,1.3424,1.3438,1.3521,1.3572,1.3499,1.3499,1.3515,1.3628,1.3661,1.3672,1.38,1.3715,1.3722,1.3727,1.373,1.4009,1.4012,0,0,0,0,0,0,1.3244,1.3269,1.3444,1.3452,1.3336,1.343,1.3446,1.3487,1.3571,1.3582,1.3516,1.3514,1.3648,1.3662,1.3677,1.3794,1.3723,1.373,1.3735,1.4007,1.401,1.4013,0,0,0,0,0,0,1.3239,1.326,1.3438,1.3361,1.3384,1.3437,1.3483,1.349,1.3523,1.3584,1.3595,1.354,1.3647,1.3666,1.3758,1.3799,1.3734,1.3741,1.4003,1.4008,1.4011,1.4028,0,0,0,0,0,0,1.3232,1.3258,1.3292,1.3361,1.3388,1.3514,1.3485,1.3495,1.3535,1.3534,1.3609,1.3619,1.3647,1.3746,1.3765,1.3808,1.3747,1.4,1.4005,1.401,1.4024,1.4032,1.4039,0,0,0,0,0,1.3224,1.3293,1.3294,1.3315,1.3431,1.3516,1.3532,1.3559,1.3539,1.3575,1.3615,1.3617,1.3791,1.3755,1.3777,1.3823,1.3997,1.4004,1.401,1.4021,1.403,1.4039,0,0,0,0,0,0,1.3231,1.3303,1.3304,1.3397,1.345,1.3518,1.3564,1.3569,1.3631,1.3628,1.3662,1.3679,1.377,1.3806,1.3765,1.392,1.3892,1.3903,1.3893,1.3903,1.391,1.39,1.3754,0,0,0,0,0,1.3242,1.3303,1.3364,1.344,1.3466,1.3511,1.3549,1.3565,1.3623,1.3646,1.3693,1.3751,1.3819,1.3863,1.3929,1.4029,1.4047,1.4072,1.4079,1.4085,1.4095,1.4152,1.4164,1.4033,1.4033,1.4032,0,0,1.3268,1.3315,1.3352,1.3443,1.3486,1.355,1.353,1.3599,1.3648,1.3658,1.3746,1.3783,1.385,1.3947,1.3992,1.398,1.4135,1.4093,1.4097,1.4103,1.4159,1.4172,1.4183,1.4037,1.4036,1.4035,0,0,1.3349,1.3389,1.3458,1.3501,1.3565,1.3595,1.3611,1.3678,1.3701,1.3791,1.38,1.386,1.3976,1.4024,1.4063,1.4162,1.4167,1.4183,1.4222,1.4278,1.4288,1.4297,1.4334,1.4346,1.4192,1.4192,1.4192,0,1.3373,1.3468,1.3493,1.3562,1.3602,1.3612,1.3683,1.3725,1.3809,1.3838,1.3822,1.3968,1.4014,1.4123,1.4147,1.4178,1.42,1.4175,1.4284,1.4294,1.4303,1.4338,1.4352,1.4193,1.4193,1.4193,1.4193,0,1.3496,1.3562,1.361,1.3688,1.3734,1.3804,1.3842,1.3887,1.3899,1.3931,1.4023,1.4078,1.4156,1.4183,1.4197,1.4294,1.4285,1.4276,1.4249,1.4316,1.435,1.4364,1.4196,1.4195,1.4195,1.4194,0,0,1.3584,1.3675,1.3692,1.3728,1.38,1.3853,1.3924,1.3997,1.4035,1.4094,1.4156,1.4253,1.4246,1.4291,1.4311,1.4359,1.4435,1.4345,1.4347,1.4361,1.4547,1.4553,1.4568,1.4439,1.4441,1.4444,1.4542,0,1.3673,1.3796,1.3821,1.393,1.3992,1.4003,1.4065,1.4118,1.4149,1.4209,1.4246,1.4314,1.4299,1.4326,1.4374,1.4416,1.4473,1.4409,1.4499,1.4502,1.4482,1.4586,1.4592,1.4682,1.4555,1.4557,1.4559,0,1.3792,1.3851,1.3964,1.4029,1.4056,1.4111,1.4181,1.4237,1.4298,1.4318,1.4368,1.4383,1.446,1.4428,1.4537,1.4492,1.4531,1.4557,1.4561,1.4571,1.4535,1.4599,1.4712,1.4725,1.458,1.4578,1.4577,0,1.3846,1.3953,1.4035,1.4066,1.4143,1.4182,1.4216,1.4274,1.4317,1.4379,1.4408,1.4479,1.4518,1.4574,1.4609,1.4583,1.4715,1.4686,1.4736,1.4735,1.4764,1.4761,1.4884,1.4788,1.4787,1.4787,1.4787,0,1.3943,1.4012,1.406,1.4111,1.419,1.422,1.4298,1.4333,1.4385,1.4444,1.4459,1.4515,1.4557,1.462,1.4648,1.4734,1.4752,1.4772,1.4778,1.477,1.4768,1.4797,1.4792,1.4791,1.479,1.4789,1.4789,0,1.4016,1.405,1.4141,1.4206,1.4224,1.428,1.4337,1.4388,1.442,1.4495,1.4515,1.4566,1.4641,1.468,1.4775,1.4794,1.489,1.4894,1.4869,1.4872,1.4919,1.4914,1.5065,1.5087,1.4975,1.4976,1.4977,0,1.4075,1.4128,1.4199,1.4238,1.4273,1.4337,1.438,1.4412,1.4457,1.4531,1.4574,1.4648,1.471,1.483,1.4877,1.495,1.4955,1.5003,1.4966,1.4957,1.4957,1.4953,1.4959,1.501,1.5011,1.5011,1.5012,0,1.4177,1.4192,1.4252,1.4318,1.4369,1.4424,1.4478,1.4511,1.4552,1.4602,1.4677,1.4725,1.482,1.4895,1.4972,1.501,1.5019,1.5023,1.5039,1.5031,1.5015,1.5025,1.4887,1.502,1.5019,1.5018,1.5018,1.5018,1.4246,1.4294,1.4351,1.4418,1.4462,1.4512,1.4563,1.4601,1.4663,1.4741,1.4758,1.4838,1.4899,1.5002,1.5043,1.5108,1.5098,1.5121,1.5126,1.5131,1.5134,1.5004,1.5122,1.5122,1.5122,1.5121,1.5121,0,1.4349,1.4386,1.4447,1.4522,1.4575,1.4576,1.4637,1.4682,1.4751,1.4806,1.4866,1.4954,1.5026,1.5079,1.5154,1.5196,1.5202,1.5215,1.5213,1.5222,1.5137,1.5117,1.5209,1.5209,1.5209,1.5209,1.5209,1.5209,1.4409,1.4491,1.4512,1.4617,1.4654,1.4731,1.4765,1.4813,1.4857,1.4953,1.5013,1.5046,1.5101,1.518,1.5248,1.5262,1.5289,1.5302,1.5316,1.5237,1.5227,1.5219,1.5199,1.5307,1.5307,1.5395,1.5396,1.5396]},{"header":{"parameterUnit":"m.s-1","parameterCategory":1,"la1":30.2991,"la2":30.254,"lo1":-89.0895,"lo2":-89.0444,"dy":0.0017,"dx":0.0017,"nx":28,"ny":28,"refTime":"2024-08-13T21:00:00:Z","depth":0,"parameterNumber":3,"parameterNumberName":"V-component_of_WINDS"},"data":[0,0,0,0,0,0,0,0,0,0,0,0,0,0,0,0,0,0,0,0,0,0,0,0,0,0,0,0,0,0,0,0,0,0,0,0,0,0,0,0,0,0,0,0,0,0,0,0,0,0,0,0,0,0,0,0,0,0,2.0355,2.0356,0,2.0437,2.0438,2.0439,2.0427,2.0426,2.0424,2.0423,2.0505,2.0508,2.0512,0,0,0,0,0,0,0,0,0,0,0,0,0,2.0185,2.0188,2.0355,2.0356,2.0357,2.0437,2.0438,2.0439,2.0427,2.0426,2.0424,2.0423,2.0504,2.0508,2.0512,0,0,0,0,0,0,0,0,0,0,0,0,0,2.0262,2.0189,2.0355,2.0361,2.0362,2.0436,2.0438,2.0439,2.0428,2.0426,2.0424,2.0422,2.0502,2.0507,2.0512,2.0585,0,0,2.0528,2.053,0,0,0,0,0,0,0,0,2.0258,2.0268,2.0359,2.0361,2.0362,2.042,2.0408,2.0488,2.0428,2.0403,2.0423,2.0421,2.0478,2.0485,2.0505,2.0589,2.0592,2.0529,2.0532,2.0534,2.0535,0,0,0,0,0,0,0,2.0252,2.0265,2.0387,2.036,2.0362,2.0358,2.0367,2.0423,2.0451,2.0405,2.0404,2.0414,2.0478,2.05,2.0507,2.0594,2.0529,2.0533,2.0536,2.0538,2.0737,2.0739,0,0,0,0,0,0,2.0246,2.026,2.0385,2.039,2.0304,2.0363,2.0373,2.0403,2.045,2.0455,2.0416,2.0413,2.0492,2.0501,2.0509,2.0594,2.0534,2.0539,2.0542,2.0734,2.0737,2.0739,0,0,0,0,0,0,2.0242,2.0257,2.0381,2.0325,2.034,2.0368,2.0403,2.0406,2.0427,2.0458,2.0463,2.0433,2.0491,2.0502,2.0565,2.0597,2.0541,2.0546,2.0732,2.0735,2.0738,2.0766,0,0,0,0,0,0,2.0237,2.0256,2.0285,2.0326,2.0343,2.0437,2.0405,2.0409,2.0436,2.0434,2.0476,2.048,2.049,2.0558,2.0571,2.0603,2.055,2.0729,2.0733,2.0737,2.0763,2.077,2.0777,0,0,0,0,0,2.0231,2.029,2.0286,2.0301,2.038,2.0439,2.0449,2.046,2.0439,2.0467,2.0487,2.0479,2.0592,2.0564,2.0579,2.0613,2.0727,2.0732,2.0737,2.076,2.0769,2.0776,0,0,0,0,0,0,2.0252,2.0296,2.0292,2.0366,2.0399,2.0437,2.0474,2.047,2.0509,2.0505,2.0516,2.0525,2.0588,2.0607,2.0576,2.0684,2.0656,2.0664,2.0669,2.0678,2.0684,2.0677,2.0554,0,0,0,0,0,2.0266,2.0311,2.0346,2.0407,2.0424,2.0446,2.0472,2.0477,2.0511,2.0525,2.055,2.0582,2.0625,2.0653,2.0694,2.0766,2.0773,2.0796,2.0803,2.0809,2.0815,2.085,2.086,2.0755,2.0755,2.0755,0,0,2.0293,2.0322,2.035,2.0412,2.0438,2.0483,2.0458,2.0507,2.054,2.0533,2.0593,2.0612,2.0649,2.0716,2.0747,2.0734,2.0845,2.0815,2.0819,2.0822,2.0856,2.0866,2.0875,2.0759,2.0758,2.0758,0,0,2.0366,2.0394,2.0447,2.0473,2.0513,2.0526,2.0539,2.0578,2.0589,2.0651,2.0645,2.0683,2.0758,2.0783,2.0806,2.0885,2.0878,2.0898,2.0933,2.0968,2.0976,2.0983,2.1008,2.1018,2.0904,2.0905,2.0905,0,2.0395,2.0463,2.0474,2.0523,2.0549,2.0544,2.0596,2.0621,2.0672,2.0689,2.0675,2.0765,2.079,2.0861,2.088,2.0899,2.0912,2.0893,2.0974,2.0982,2.0989,2.1013,2.1022,2.0906,2.0906,2.0906,2.0906,0,2.0495,2.0542,2.058,2.0628,2.0659,2.0709,2.0726,2.0755,2.0757,2.0771,2.0831,2.0861,2.0906,2.0924,2.0927,2.0994,2.0984,2.0972,2.0944,2.1,2.1023,2.1032,2.0909,2.0909,2.0908,2.0907,0,0,2.0584,2.0636,2.065,2.067,2.0712,2.0748,2.0797,2.0841,2.0864,2.0899,2.0938,2.1,2.0987,2.1013,2.1018,2.1049,2.1105,2.1032,2.1033,2.1042,2.1177,2.1185,2.1195,2.1102,2.1104,2.1105,2.1173,0,2.0658,2.0745,2.0755,2.0831,2.0873,2.0868,2.091,2.0939,2.0954,2.099,2.1006,2.1047,2.103,2.1045,2.1075,2.1092,2.1132,2.1088,2.1136,2.1137,2.1124,2.1208,2.1216,2.1279,2.1182,2.1184,2.1185,0,2.0757,2.0793,2.0874,2.0907,2.0925,2.0963,2.1002,2.1038,2.107,2.1078,2.1105,2.1106,2.1153,2.1125,2.1189,2.1159,2.1179,2.119,2.1192,2.1195,2.1163,2.121,2.13,2.1308,2.12,2.1199,2.1197,0,2.0809,2.0879,2.0935,2.0953,2.0994,2.102,2.1038,2.1069,2.1094,2.1128,2.1143,2.1183,2.1204,2.1234,2.1244,2.1223,2.1306,2.128,2.1312,2.1311,2.1328,2.1326,2.1419,2.1345,2.1345,2.1345,2.1345,0,2.089,2.0938,2.0958,2.0993,2.1046,2.1056,2.1108,2.1125,2.1151,2.1187,2.1186,2.1219,2.1232,2.1267,2.1275,2.1325,2.1335,2.1341,2.1342,2.134,2.1338,2.1351,2.1346,2.1348,2.1347,2.1347,2.1346,0,2.0957,2.0973,2.1033,2.1066,2.1076,2.1113,2.1141,2.1173,2.1186,2.1231,2.1242,2.1263,2.1304,2.1317,2.1367,2.1372,2.1429,2.1428,2.1418,2.1417,2.1447,2.1443,2.155,2.1563,2.1483,2.1484,2.1484,0,2.1006,2.1043,2.108,2.1104,2.1123,2.1162,2.1187,2.1197,2.1223,2.126,2.1287,2.1327,2.136,2.1424,2.1443,2.1479,2.1477,2.1512,2.1483,2.1478,2.1474,2.1471,2.1473,2.1517,2.1518,2.1519,2.1519,0,2.109,2.1096,2.1132,2.117,2.12,2.1231,2.126,2.1279,2.1294,2.1322,2.1364,2.1389,2.1438,2.1477,2.1514,2.1531,2.1526,2.1528,2.1537,2.1534,2.1525,2.1527,2.143,2.1525,2.1525,2.1524,2.1524,2.1524,2.1148,2.1179,2.1209,2.1249,2.1272,2.1299,2.1329,2.1346,2.1381,2.1422,2.1426,2.1469,2.1497,2.1546,2.1565,2.1598,2.1588,2.1601,2.1604,2.1607,2.1607,2.1522,2.1605,2.1605,2.1605,2.1604,2.1604,0,2.123,2.1248,2.1285,2.1325,2.1355,2.135,2.1381,2.1406,2.1445,2.1472,2.1503,2.1549,2.1585,2.1606,2.1642,2.1664,2.1663,2.1673,2.167,2.1674,2.1616,2.1603,2.1673,2.1673,2.1673,2.1673,2.1673,2.1673,2.1276,2.1327,2.1335,2.1397,2.1415,2.1458,2.1476,2.15,2.1521,2.1572,2.1602,2.1616,2.1639,2.1676,2.1709,2.1714,2.1726,2.1737,2.174,2.1685,2.1678,2.1671,2.1659,2.174,2.174,2.1794,2.1795,2.1795]}]]